Stations météo

réclame
Mon MeteoGroup
Koksijde, Belgique (6400): Température de l'air & dewpoint: 15.09.2018 10:00:00 - 21.09.2018 10:00:00 (CEST)Koksijde, Belgique (6400): Vitesse du vent & gusts: 15.09.2018 10:00:00 - 21.09.2018 10:00:00 (CEST)Koksijde, Belgique (6400): Direction du vent: 15.09.2018 10:00:00 - 21.09.2018 10:00:00 (CEST)Koksijde, Belgique (6400): reduced air pressure: 15.09.2018 10:00:00 - 21.09.2018 10:00:00 (CEST)Koksijde, Belgique (6400): visibility: 15.09.2018 10:00:00 - 21.09.2018 10:00:00 (CEST)
Date & Time tt [°C] td [°C] ff [km/h] ff [knt] fx [km/h] fx [knt] dd ppp [hPa] vv [km]
21.09.2018 10:00:00 - - - - - - - - -
21.09.2018 09:00:00 - - - - - - - - -
21.09.2018 08:00:00 15,1 8,0 32 18 - - W 1004,1 16
21.09.2018 07:00:00 15,3 13,2 29 16 61 33 WSW 1002,7 12
21.09.2018 06:00:00 17,7 13,9 32 18 58 31 SSW 1000,7 19
21.09.2018 05:00:00 18,8 12,7 32 18 - - SSW 1001,5 18
21.09.2018 04:00:00 18,6 12,5 29 16 47 25 S 1001,6 19
21.09.2018 03:00:00 18,5 12,6 22 12 36 19 S 1003,2 18
21.09.2018 02:00:00 18,9 12,7 22 12 - - SSW 1005,3 18
21.09.2018 01:00:00 18,7 13,0 22 12 25 14 S 1006,1 18
21.09.2018 00:00:00 17,4 13,6 11 6 25 14 SSW 1007,2 15
20.09.2018 23:00:00 19,1 13,1 18 10 - - SSW 1008,0 16
20.09.2018 22:00:00 19,1 13,2 18 10 25 14 S 1008,5 16
20.09.2018 21:00:00 18,9 14,2 11 6 29 16 SW 1009,6 13
20.09.2018 20:00:00 21,1 13,6 14 8 - - S 1010,1 17
20.09.2018 19:00:00 22,2 13,6 18 10 22 12 SSW 1011,1 15
20.09.2018 18:00:00 22,4 13,6 18 10 29 16 SSW 1011,7 19
20.09.2018 17:00:00 22,1 14,2 14 8 - - S 1012,7 18
20.09.2018 16:00:00 21,7 13,4 22 12 43 23 SSW 1013,3 20
20.09.2018 15:00:00 22,1 13,1 32 18 47 25 SW 1014,2 20
20.09.2018 14:00:00 22,6 14,4 29 16 - - SW 1014,7 20
20.09.2018 13:00:00 20,7 14,2 29 16 43 23 SW 1015,3 20
20.09.2018 12:00:00 19,7 14,6 25 14 36 19 SW 1015,7 20
20.09.2018 11:00:00 18,3 14,8 22 12 - - SSW 1015,8 20
20.09.2018 10:00:00 17,7 14,7 22 12 29 16 SSW 1016,2 20
20.09.2018 09:00:00 16,7 14,4 18 10 29 16 SSW 1015,8 15
20.09.2018 08:00:00 15,6 13,8 18 10 - - S 1016,1 15
20.09.2018 07:00:00 15,0 13,3 11 6 18 10 S 1016,0 12
20.09.2018 06:00:00 15,6 13,7 14 8 22 12 S 1016,2 10
20.09.2018 05:00:00 16,5 14,7 14 8 - - S 1016,5 9
20.09.2018 04:00:00 16,2 14,7 11 6 14 8 SSW 1016,7 8
20.09.2018 03:00:00 16,3 14,7 7 4 18 10 SSW 1016,6 8
20.09.2018 02:00:00 16,5 14,5 14 8 - - SSW 1016,8 9
20.09.2018 01:00:00 16,8 14,4 11 6 18 10 SSW 1017,2 10
20.09.2018 00:00:00 16,8 14,3 11 6 18 10 S 1017,5 11
19.09.2018 23:00:00 17,5 14,2 11 6 - - SSW 1017,7 13
19.09.2018 22:00:00 19,1 14,1 14 8 25 14 SW 1017,6 14
19.09.2018 21:00:00 19,8 13,7 18 10 36 19 SW 1016,8 18
19.09.2018 20:00:00 20,6 13,5 25 14 - - SW 1016,6 16
19.09.2018 19:00:00 21,8 13,2 32 18 47 25 SW 1016,5 17
19.09.2018 18:00:00 21,8 13,1 32 18 50 27 SW 1016,3 19
19.09.2018 17:00:00 21,6 13,2 36 19 - - WSW 1016,5 17
19.09.2018 16:00:00 21,7 13,7 36 19 54 29 SW 1016,2 15
19.09.2018 15:00:00 21,5 13,9 40 21 58 31 SW 1016,2 15
19.09.2018 14:00:00 20,8 13,5 25 14 - - SW 1016,3 15
19.09.2018 13:00:00 21,5 13,7 32 18 43 23 SW 1016,2 15
19.09.2018 12:00:00 20,3 14,5 25 14 36 19 SW 1016,5 15
19.09.2018 11:00:00 19,1 14,3 25 14 - - SSW 1016,5 15
19.09.2018 10:00:00 18,1 14,2 22 12 29 16 SSW 1016,0 15
19.09.2018 09:00:00 16,1 14,0 14 8 22 12 SSW 1015,7 10
19.09.2018 08:00:00 14,0 12,7 7 4 - - SSW 1015,7 10
19.09.2018 07:00:00 13,7 12,3 11 6 18 10 SSW 1015,2 10
19.09.2018 06:00:00 14,8 12,6 11 6 14 8 S 1015,2 10
19.09.2018 05:00:00 14,5 12,7 7 4 - - S 1015,2 9
19.09.2018 04:00:00 14,0 12,3 4 2 7 4 N 1015,7 9
19.09.2018 03:00:00 14,3 12,6 4 2 18 10 N 1015,7 8
19.09.2018 02:00:00 14,3 12,3 14 8 - - S 1015,6 10
19.09.2018 01:00:00 15,1 12,6 11 6 18 10 S 1015,5 12
19.09.2018 00:00:00 14,3 12,3 4 2 11 6 N 1015,3 10
18.09.2018 23:00:00 13,5 11,4 4 2 - - N 1015,6 12
18.09.2018 22:00:00 15,1 12,0 4 2 14 8 N 1015,7 13
18.09.2018 21:00:00 16,7 12,2 11 6 25 14 SSW 1015,7 17
18.09.2018 20:00:00 18,3 12,2 18 10 - - WSW 1015,0 14
18.09.2018 19:00:00 19,0 12,4 29 16 43 23 WSW 1014,7 14
18.09.2018 18:00:00 19,5 12,6 29 16 50 27 WSW 1014,3 15
18.09.2018 17:00:00 20,8 12,8 32 18 - - SW 1013,8 20
18.09.2018 16:00:00 21,8 12,4 36 19 58 31 WSW 1013,6 20
18.09.2018 15:00:00 21,5 12,2 43 23 58 31 SW 1013,1 20
18.09.2018 14:00:00 21,2 14,2 36 19 - - SW 1012,8 20
18.09.2018 13:00:00 21,6 13,7 40 21 54 29 SW 1012,2 20
18.09.2018 12:00:00 20,8 13,8 29 16 50 27 SW 1011,7 20
18.09.2018 11:00:00 20,2 13,6 32 18 - - SW 1011,1 20
18.09.2018 10:00:00 19,7 15,4 25 14 32 18 SW 1010,7 20
18.09.2018 09:00:00 16,8 13,1 14 8 18 10 SSW 1010,2 20
18.09.2018 08:00:00 13,5 9,1 7 4 - - S 1010,0 20
18.09.2018 07:00:00 14,7 8,7 7 4 22 12 WSW 1009,6 20
18.09.2018 06:00:00 16,2 8,3 11 6 18 10 S 1008,8 20
18.09.2018 05:00:00 16,7 7,8 11 6 - - S 1009,0 20
18.09.2018 04:00:00 17,2 7,5 11 6 22 12 SSE 1009,3 19
18.09.2018 03:00:00 17,5 7,3 14 8 22 12 SSE 1009,8 20
18.09.2018 02:00:00 16,4 7,8 11 6 - - SSE 1010,6 17
18.09.2018 01:00:00 16,6 7,9 14 8 18 10 SSE 1011,1 19
18.09.2018 00:00:00 16,5 8,2 11 6 14 8 SE 1011,6 17
17.09.2018 23:00:00 17,2 8,5 11 6 - - SE 1012,1 16
17.09.2018 22:00:00 17,2 9,2 11 6 11 6 SE 1012,8 17
17.09.2018 21:00:00 16,8 9,9 7 4 11 6 N 1013,3 13
17.09.2018 20:00:00 20,9 9,4 11 6 - - SSE 1013,7 20
17.09.2018 19:00:00 22,6 10,2 7 4 18 10 S 1014,0 20
17.09.2018 18:00:00 24,3 9,9 11 6 25 14 S 1014,5 20
17.09.2018 17:00:00 24,8 8,6 18 10 - - S 1015,1 20
17.09.2018 16:00:00 25,1 9,0 22 12 29 16 S 1015,8 20
17.09.2018 15:00:00 24,5 9,6 18 10 25 14 S 1016,7 20
17.09.2018 14:00:00 23,5 10,1 18 10 - - S 1017,6 20
17.09.2018 13:00:00 22,6 10,8 14 8 29 16 S 1018,0 20
17.09.2018 12:00:00 20,9 11,3 7 4 14 8 S 1018,6 20
17.09.2018 11:00:00 18,4 11,9 7 4 - - S 1019,1 20
17.09.2018 10:00:00 15,7 10,4 4 2 7 4 N 1019,2 20
17.09.2018 09:00:00 13,1 9,4 4 2 7 4 N 1019,5 20
17.09.2018 08:00:00 10,8 7,9 4 2 - - N 1019,2 16
17.09.2018 07:00:00 10,0 7,7 4 2 7 4 N 1019,1 16
17.09.2018 06:00:00 10,8 8,0 4 2 7 4 N 1018,7 16
17.09.2018 05:00:00 11,5 8,3 4 2 - - N 1019,0 16
17.09.2018 04:00:00 11,3 8,4 4 2 11 6 N 1019,2 13
17.09.2018 03:00:00 11,0 8,3 4 2 11 6 N 1019,2 13
17.09.2018 02:00:00 10,5 7,8 7 4 - - WSW 1019,8 18
17.09.2018 01:00:00 11,6 8,0 4 2 7 4 N 1019,7 17
17.09.2018 00:00:00 11,5 8,3 7 4 7 4 SSW 1019,7 19
16.09.2018 23:00:00 12,3 8,4 4 2 - - N 1020,1 19
16.09.2018 22:00:00 14,3 9,2 4 2 7 4 N 1020,1 19
16.09.2018 21:00:00 15,3 9,6 7 4 11 6 SSW 1019,8 20
16.09.2018 20:00:00 17,3 10,2 7 4 - - SW 1019,6 20
16.09.2018 19:00:00 20,8 10,3 14 8 22 12 SW 1019,2 20
16.09.2018 18:00:00 21,8 10,8 18 10 25 14 SSW 1019,1 20
16.09.2018 17:00:00 22,1 9,7 18 10 - - SSW 1019,3 19
16.09.2018 16:00:00 21,2 9,6 18 10 29 16 SSW 1019,7 20
16.09.2018 15:00:00 21,2 10,0 18 10 29 16 SSW 1020,1 18
16.09.2018 14:00:00 21,1 10,3 22 12 - - SSW 1020,6 18
16.09.2018 13:00:00 20,7 12,0 18 10 29 16 S 1021,2 19
16.09.2018 12:00:00 18,9 11,2 18 10 29 16 SSW 1021,8 18
16.09.2018 11:00:00 17,2 11,1 14 8 - - S 1021,8 16
16.09.2018 10:00:00 15,3 10,9 11 6 14 8 SSW 1021,8 16
16.09.2018 09:00:00 12,6 10,3 7 4 11 6 S 1021,8 13
16.09.2018 08:00:00 9,8 8,8 4 2 - - N 1022,1 5
16.09.2018 07:00:00 10,1 8,8 4 2 4 2 N 1022,2 7
16.09.2018 06:00:00 8,8 7,9 4 2 0 0 N 1022,3 6
16.09.2018 05:00:00 9,2 8,0 4 2 - - N 1022,7 5
16.09.2018 04:00:00 9,0 7,9 4 2 4 2 N 1022,8 7
16.09.2018 03:00:00 9,8 8,5 4 2 4 2 N 1023,2 7
16.09.2018 02:00:00 9,6 8,3 4 2 - - N 1024,0 7
16.09.2018 01:00:00 10,6 8,9 4 2 4 2 N 1024,7 8
16.09.2018 00:00:00 11,1 9,3 4 2 4 2 N 1025,0 10
15.09.2018 23:00:00 12,6 9,8 4 2 - - N 1025,0 14
15.09.2018 22:00:00 12,5 9,1 7 4 7 4 N 1025,0 16
15.09.2018 21:00:00 14,0 9,8 7 4 7 4 S 1025,0 18
15.09.2018 20:00:00 15,6 11,4 4 2 - - N 1024,5 17
15.09.2018 19:00:00 17,6 11,8 7 4 14 8 WNW 1024,4 15
15.09.2018 18:00:00 18,2 11,1 11 6 22 12 WNW 1024,5 16
15.09.2018 17:00:00 18,2 9,4 18 10 - - WNW 1024,7 17
15.09.2018 16:00:00 19,0 9,6 14 8 25 14 NW 1025,0 12
15.09.2018 15:00:00 19,2 9,9 22 12 29 16 WNW 1025,2 20
15.09.2018 14:00:00 18,4 10,1 14 8 - - WNW 1025,2 20
15.09.2018 13:00:00 18,2 11,6 14 8 25 14 WNW 1025,4 20
15.09.2018 12:00:00 16,6 12,4 11 6 18 10 W 1025,5 19
15.09.2018 11:00:00 16,5 12,4 11 6 - - WSW 1025,0 11
15.09.2018 10:00:00 15,2 12,6 11 6 14 8 SW 1024,7 10

tt = Température de l'air
td = dewpoint
ff = Vitesse du vent
fx = gusts
dd = Direction du vent
ppp = reduced air pressure
vv = visibility

stations d'obs. à proximité